Tracking 18945 objects as of 19-Jan-2018
HD Live streaming from Space Station
objects crossing your sky now

FENGYUN 1C DEB

Track FENGYUN 1C DEB now!
10-day predictions


NORAD ID: 29918
Int'l Code: 1999-025HQ
Perigee: 824.9 km
Apogee: 848.4 km
Inclination: 99.0 °
Period: 101.5 minutes
Semi major axis: 7207 km
RCS: 0.0927 m2 (small)
Launch date: May 10, 1999
Source: People's Republic of China (PRC)
Launch site: Taiyaun Space Center, China (TSC)

Note: This is SATELLITE DEBRIS
aabbcc
Your satellite tracking list
Your tracking list is empty




NASA's NSSDC Master Catalog

Two Line Element Set (TLE):
1 29918U 99025HQ  18018.96019927  .00000656  00000-0  33757-3 0  9990
2 29918  99.0171  18.1847 0016331 327.3070  65.2686 14.18767809567881
Source of the keplerian elements: AFSPC